Regional Weather Roundup
Issued by NWS

Home | Current Version | Previous Version | Graphics & Text | Print | Product List | Glossary On
Versions: 1 2 3 4 5 6 7 8 9 10 11 12 13 14 15 16 17 18 19 20 21 22 23 24 25 26 27 28 29 30 31 32 33 34 35 36 37 38 39 40 41 42 43 44 45 46 47 48 49 50
534
ASUS44 KLIX 240110
RWRLA
LOUISIANA WEATHER ROUNDUP
NATIONAL WEATHER SERVICE NEW ORLEANS LA
800 PM CDT WED JUL 23 2014

NOTE: "FAIR" INDICATES FEW OR NO CLOUDS BELOW 12,000 FEET WITH NO
      SIGNIFICANT WEATHER AND/OR OBSTRUCTIONS TO VISIBILITY.
      SKY/WX - SKY CONDITION AND SIGNIFICANT WEATHER.
      TMP - AIR TEMPERATURE.    DP   - DEWPOINT TEMPERATURE.
      RH  - RELATIVE HUMIDITY.  PRES - PRESSURE.
      HX  - HEAT INDEX.         WCI  - WIND CHILL INDEX.

*  THESE STATIONS ARE NOT NWS OR FAA STATIONS AND ARE NOT UNDER
   NWS QUALITY CONTROL.

LAZ040-048-061>063-065-066-069-240200-
SOUTHEAST LOUISIANA

CITY           SKY/WX    TMP DP  RH WIND       PRES   REMARKS
N.O. AUDUBON   NOT AVBL
N.O. INTL ARPT MOCLDY    79  72  79 S5        29.99R
N.O. LAKEFRONT PTCLDY    81  72  74 S3        30.00R
N.O. DOWNTOWN* CLOUDY    82  70  65 S6        30.00R
SLIDELL        PTCLDY    80  72  76 CALM      29.99R
BATON ROUGE    PTCLDY    81  74  79 S3        29.99R
BOOTHVILLE       N/A     80  73  79 S6        29.99R
BELLE CHASSE   MOCLDY    78  72  81 CALM      29.99R
BOGALUSA*      FAIR      82  73  74 CALM      30.02R
GALLIANO*      NOT AVBL
NEW ROADS*     FAIR      81  75  83 CALM      29.99R
GONZALES*      FAIR      80  77  90 CALM      29.98R
HAMMOND*       PTCLDY    81  72  74 CALM      30.01R
HOUMA*         PTCLDY    80  70  73 E3        29.99R
PORT FOURCHON* CLEAR     81  73  78 S5        30.00R

$$

LAZ041-044-053-054-240200-
SOUTHWEST LOUISIANA

CITY           SKY/WX    TMP DP  RH WIND       PRES   REMARKS
LAKE CHARLES   MOCLDY    83  74  74 W5        29.98R
LAFAYETTE      MOCLDY    82  74  76 CALM      29.98R
PATTERSON      PTCLDY    79  75  89 CALM      30.03R
SALT POINT       N/A     83  77  82 CALM      29.98R
NEW IBERIA     PTCLDY    82  76  81 CALM      29.98R
CHENAULT AIRPK CLEAR     84  73  70 CALM      29.99R

$$

LAZ027-028-240200-
CENTRAL LOUISIANA

CITY           SKY/WX    TMP DP  RH WIND       PRES   REMARKS
FORT POLK      MOCLDY    80  70  71 NW9       30.00R
ALEXANDRIA INT CLOUDY    83  76  79 N7        29.99R
ALEXANDRIA     CLOUDY    81  69  67 NW6       30.00R

$$

LAZ001-002-240200-
NORTHWEST LOUISIANA

CITY           SKY/WX    TMP DP  RH WIND       PRES   REMARKS
SHREVEPORT     TSTM      73  69  87 N16G26    30.11R
BARKSDALE AFB  TSTM      72  68  89 N15G26    30.11S
DTN SHREVEPORT NOT AVBL

$$

LAZ014-016-240200-
NORTHEAST LOUISIANA

CITY           SKY/WX    TMP DP  RH WIND       PRES   REMARKS
MONROE         CLOUDY    86  72  62 NW9       30.02R
TALLULAH       PTCLDY    80  76  87 CALM      30.00R

$$




USA.gov is the U.S. government's official web portal to all federal, state and local government web resources and services.